Simultaneous Nadir Overpasses (SNOs) Predictions

Prediction of SNOs between METOP-B and NOAA-19 Satellite Orbit:

Table of predicted SNOs for the next 14.0 days since TLE Epoch: 11/22/2014
Index Date (METOP-B) Time (METOP-B) Lat,Lon (METOP-B) SZA (METOP-B ) Date (NOAA-19) Time (NOAA-19) Lat,Lon (NOAA-19) SZA (NOAA-19 ) Distance(km) Time Diff (sec)
1 11/25/2014 11:26:00 -74.71,-174.79 84.60 11/25/2014 11:24:49 -74.74,-176.47 84.57 49.33 71
2 11/25/2014 12:16:46 74.40, -8.29 95.10 11/25/2014 12:15:40 74.39, -8.26 95.09 1.06 66
3 11/25/2014 13:07:28 -74.40, 159.05 84.90 11/25/2014 13:06:45 -74.39, 158.97 84.91 2.70 43
4 11/25/2014 13:58:08 74.38, -33.67 95.09 11/25/2014 13:57:43 74.38, -33.75 95.10 2.19 25
5 11/25/2014 14:48:51 -74.34, 133.54 84.95 11/25/2014 14:48:47 -74.34, 133.61 84.95 2.34 4
6 11/25/2014 15:39:31 74.32, -59.19 95.04 11/25/2014 15:39:45 74.33, -59.10 95.05 2.72 14
7 11/25/2014 16:30:13 -74.32, 108.15 84.95 11/25/2014 16:30:50 -74.32, 108.13 84.95 0.74 37
8 11/25/2014 17:20:53 74.30, -84.57 95.04 11/25/2014 17:21:48 74.32, -84.59 95.05 1.91 55
9 11/25/2014 18:11:37 -74.21, 82.52 85.05 11/25/2014 18:12:51 -74.22, 82.90 85.04 11.66 74
10 12/05/2014 20:36:39 74.51,-132.94 96.86 12/05/2014 20:35:25 74.49,-133.30 96.84 11.05 74
11 12/05/2014 21:27:23 -74.43, 34.18 83.21 12/05/2014 21:26:30 -74.43, 34.09 83.22 2.81 53
12 12/05/2014 22:18:03 74.40,-158.59 96.76 12/05/2014 22:17:26 74.38,-158.53 96.75 2.15 37
13 12/05/2014 23:08:45 -74.37, 8.66 83.27 12/05/2014 23:08:31 -74.37, 8.73 83.27 2.01 14
14 12/05/2014 23:59:24 74.38, 176.02 96.75 12/05/2014 23:59:28 74.37, 175.98 96.75 1.31 4
15 12/06/2014 00:50:07 -74.35, -16.73 83.28 12/06/2014 00:50:34 -74.36, -16.76 83.27 1.85 27
16 12/06/2014 01:40:47 74.31, 150.51 96.69 12/06/2014 01:41:30 74.32, 150.62 96.70 3.52 43
17 12/06/2014 02:31:29 -74.33, -42.11 83.29 12/06/2014 02:32:36 -74.31, -42.12 83.32 2.72 67
18 12/06/2014 03:22:17 73.90, 124.14 96.29 12/06/2014 03:23:26 73.97, 126.01 96.35 58.31 69




NCC Satellite Simultaneous Nadir Overpasses
